EW0401 Weather Reports


time (UTC)temp
C
wind
direction
speed
KPH
gust
KPH
rain 1hr
cm
rain 24hr
cm
rain mn
cm
humidity
%
barometer
mb
20260831071604 26 0 0.0 0.0 0.00 0.00 0.00 86 1015.9
20260831070105 27 0 0.0 0.0 0.00 0.00 0.00 86 1015.9
20260831064559 27 0 0.0 0.0 0.00 0.00 0.00 86 1015.9
20260831063106 27 0 0.0 0.0 0.00 0.00 0.00 85 1016.0
20260831061602 27 0 0.0 0.0 0.00 0.00 0.00 85 1016.0
20260831060108 27 0 0.0 0.0 0.00 0.00 0.00 85 1016.0
20260831054604 27 0 0.0 0.0 0.00 0.00 0.00 85 1016.1
20260831053104 27 0 0.0 0.0 0.00 0.00 0.00 85 1016.2
20260831051611 27 0 0.0 0.0 0.00 0.00 0.00 84 1015.9
20260831050108 28 0 0.0 0.0 0.00 0.00 0.00 84 1015.8
20260831044616 28 0 0.0 0.0 0.00 0.00 0.00 84 1015.9
20260831043105 28 0 0.0 0.0 0.00 0.00 0.00 82 1015.8
20260831041605 28 0 0.0 1.6 0.00 0.00 0.00 82 1015.8
20260831040107 28 0 0.0 3.2 0.00 0.00 0.00 82 1015.7
20260831034607 28 0 0.0 3.2 0.00 0.00 0.00 82 1015.7
20260831033119 29 0 0.0 3.2 0.00 0.00 0.00 81 1015.6
20260831031600 29 0 0.0 4.8 0.00 0.00 0.00 80 1015.4
20260831030104 29 0 0.0 3.2 0.00 0.00 0.00 80 1015.4
20260831024621 29 0 0.0 6.4 0.00 0.00 0.00 80 1015.3
20260831023102 29 0 0.0 1.6 0.00 0.00 0.00 80 1014.9
20260831021601 29 0 0.0 0.0 0.00 0.00 0.00 79 1014.7
20260831020105 29 0 0.0 1.6 0.00 0.00 0.00 78 1014.6
20260831014603 30 0 0.0 3.2 0.00 0.00 0.00 78 1014.6
20260831013103 30 208 0.0 3.2 0.00 0.00 0.00 77 1014.5
20260831011605 30 0 0.0 0.0 0.00 0.00 0.00 76 1014.4
20260831010110 30 208 0.0 3.2 0.00 0.00 0.00 75 1014.3
20260831004606 31 0 0.0 8.0 0.00 0.00 0.00 73 1014.3
20260831003105 31 0 0.0 3.2 0.00 0.00 0.00 72 1014.3
20260831001611 32 0 0.0 8.0 0.00 0.00 0.00 70 1014.4
20260831000108 33 0 0.0 3.2 0.00 0.00 0.00 66 1014.6
20260830234605 33 0 0.0 3.2 0.00 0.00 0.00 63 1014.5
20260830233109 33 0 0.0 8.0 0.00 0.00 0.00 61 1014.5
20260830231605 35 0 0.0 3.2 0.00 0.00 0.00 56 1014.6
20260830230105 35 302 0.0 4.8 0.00 0.00 0.00 56 1014.4
20260830224603 35 0 0.0 6.4 0.00 0.00 0.00 56 1014.4
20260830223109 36 190 0.0 4.8 0.00 0.00 0.00 54 1014.3
20260830221603 37 0 0.0 4.8 0.00 0.00 0.00 54 1014.3
20260830220107 37 0 0.0 8.0 0.00 0.00 0.00 50 1014.2
20260830214620 37 0 0.0 6.4 0.00 0.00 0.00 49 1014.2
20260830213106 37 0 0.0 3.2 0.00 0.00 0.00 45 1014.5
20260830211604 37 0 0.0 4.8 0.00 0.00 0.00 48 1014.4
20260830210104 37 224 0.0 6.4 0.00 0.00 0.00 47 1014.8
20260830204604 37 0 0.0 6.4 0.00 0.00 0.00 48 1015.1
20260830203106 37 200 0.0 8.0 0.00 0.00 0.00 49 1015.3
20260830201604 37 0 0.0 4.8 0.00 0.00 0.00 48 1015.4
20260830200107 37 0 0.0 4.8 0.00 0.00 0.00 49 1015.4
20260830194608 36 0 0.0 8.0 0.00 0.00 0.00 45 1015.6
20260830193131 36 0 0.0 4.8 0.00 0.00 0.00 47 1015.9
20260830191606 36 0 1.6 9.7 0.00 0.00 0.00 47 1016.1
20260830190105 36 0 0.0 6.4 0.00 0.00 0.00 47 1016.5
20260830184606 36 232 0.0 9.7 0.00 0.00 0.00 53 1016.8
20260830183103 36 0 0.0 9.7 0.00 0.00 0.00 53 1016.8
20260830181610 36 206 0.0 8.0 0.00 0.00 0.00 57 1016.9
20260830180114 36 0 0.0 6.4 0.00 0.00 0.00 60 1017.1
20260830174618 35 23 1.6 6.4 0.00 0.00 0.00 61 1017.3
20260830173116 35 0 0.0 4.8 0.00 0.00 0.00 59 1017.5
20260830171607 35 0 0.0 4.8 0.00 0.00 0.00 60 1017.5
20260830170110 35 0 1.6 6.4 0.00 0.00 0.00 62 1017.6
20260830164605 34 266 0.0 3.2 0.00 0.00 0.00 63 1017.6
20260830163108 34 0 0.0 9.7 0.00 0.00 0.00 62 1017.7
20260830161604 33 0 0.0 6.4 0.00 0.00 0.00 63 1017.8
20260830160108 33 257 0.0 6.4 0.00 0.00 0.00 64 1017.7
20260830154604 32 0 0.0 9.7 0.00 0.00 0.00 68 1017.7
20260830153113 32 0 0.0 6.4 0.00 0.00 0.00 68 1017.7
20260830151608 31 264 0.0 6.4 0.00 0.00 0.00 73 1017.9
20260830150104 31 0 0.0 3.2 0.00 0.00 0.00 74 1018.0
20260830144610 30 0 0.0 6.4 0.00 0.00 0.00 77 1017.9
20260830143103 30 0 0.0 4.8 0.00 0.00 0.00 79 1018.0
20260830141603 30 0 0.0 4.8 0.00 0.00 0.00 82 1017.9
20260830140107 29 0 0.0 3.2 0.00 0.00 0.00 83 1017.9
20260830134616 28 0 0.0 3.2 0.00 0.00 0.00 84 1017.7
20260830133111 27 0 0.0 4.8 0.00 0.00 0.00 86 1017.6
20260830131609 27 0 0.0 0.0 0.00 0.00 0.00 88 1017.5
20260830130111 26 0 0.0 0.0 0.00 0.00 0.00 91 1017.3
20260830124605 25 0 0.0 0.0 0.00 0.00 0.00 91 1017.1
20260830123109 25 0 0.0 0.0 0.00 0.00 0.00 90 1016.9
20260830121607 24 0 0.0 0.0 0.00 0.00 0.00 90 1016.8
20260830120106 25 0 0.0 0.0 0.00 0.00 0.00 90 1016.9
20260830114627 25 240 0.0 0.0 0.00 0.00 0.00 90 1016.6
20260830114613 24 0 0.0 0.0 0.00 0.00 0.00 90 1017.1
20260830114526 25 240 0.0 0.0 0.00 0.00 0.00 90 1016.7
20260830113106 25 0 0.0 0.0 0.00 0.00 0.00 90 1017.0
20260830111601 25 0 0.0 0.0 0.00 0.00 0.00 89 1016.7
20260830110106 25 0 0.0 0.0 0.00 0.00 0.00 89 1016.6
20260830104621 25 0 0.0 0.0 0.00 0.00 0.00 89 1016.5
20260830103119 25 0 0.0 0.0 0.00 0.00 0.00 89 1016.5
20260830101610 25 0 0.0 0.0 0.00 0.00 0.00 89 1016.4
20260830100110 25 0 0.0 0.0 0.00 0.00 0.00 89 1016.3
20260830094602 25 0 0.0 0.0 0.00 0.00 0.00 89 1016.3
20260830093107 25 0 0.0 0.0 0.00 0.00 0.00 89 1016.2
20260830091602 25 0 0.0 0.0 0.00 0.00 0.00 89 1016.3
20260830090106 25 0 0.0 0.0 0.00 0.00 0.00 89 1016.3
20260830084605 25 0 0.0 0.0 0.00 0.00 0.00 88 1016.5
20260830083109 25 0 0.0 0.0 0.00 0.00 0.00 88 1016.3
20260830081557 25 0 0.0 0.0 0.00 0.00 0.00 87 1016.3
20260830080120 26 0 0.0 0.0 0.00 0.00 0.00 87 1016.5
20260830074604 26 0 0.0 0.0 0.00 0.00 0.00 87 1016.4
20260830073104 26 0 0.0 0.0 0.00 0.00 0.00 86 1016.5